Probability
0 0 0 0 0 0 0 0 0 0 0 0 0 0 0 0 0 0 0 0 0 0 0 0 0 0 1 0 0 1 2 1 1 1 0 0 0 0 0 0 0 0 0 0
0 0 0 0 0 0 0 0 0 0 0 0 0 0 0 0 0 0 0 0 0 0 0 0 0 1 1 1 0 1 2 2 2 2 1 1 1 0 0 0 0 0 0 0
0 0 0 0 0 0 0 0 0 0 0 0 0 0 0 0 0 0 0 0 0 0 0 0 0 1 2 2 1 0 1 2 3 3 3 2 2 1 1 1 0 0 0 0
0 0 0 0 0 0 0 0 0 0 0 0 0 0 0 0 0 0 0 0 0 0 0 0 0 0 1 2 2 1 1 1 2 3 3 3 3 3 2 1 0 0 0 0
0 0 0 0 0 0 0 0 0 0 0 0 0 0 0 0 0 0 0 0 0 0 0 0 0 0 1 3 4 3 1 0 1 1 2 3 3 3 2 1 0 0 0 0
0 0 0 0 0 0 0 0 0 0 0 0 0 0 0 0 0 0 0 0 0 0 0 0 0 1 2 3 4 4 2 1 0 0 1 2 2 2 1 0 0 0 0 0
0 0 0 0 0 0 0 0 0 0 0 0 0 0 0 0 0 0 0 0 0 0 0 0 0 1 2 3 3 3 2 1 0 0 0 1 1 1 0 0 0 0 0 0
0 0 0 0 0 0 0 0 0 0 0 0 0 0 0 0 0 0 0 0 0 0 0 0 0 1 2 3 1 1 1 1 0 0 0 0 0 0 0 0 0 0 0 0
0 0 0 0 0 0 0 0 0 0 0 0 0 0 0 0 0 0 0 0 0 0 0 0 0 1 2 2 1 0 0 0 0 0 0 0 0 0 0 0 0 0 0 0
0 0 0 0 0 0 0 0 0 0 0 0 0 0 0 0 0 0 0 0 0 0 0 0 0 1 2 2 1 0 0 0 0 0 0 0 0 0 0 0 0 0 0 0
0 0 0 0 0 0 0 0 0 0 0 0 0 0 0 0 0 0 0 0 0 0 0 0 0 1 1 2 2 1 0 0 0 0 0 0 0 0 0 0 0 0 0 0
0 0 0 0 0 0 0 0 0 0 0 0 0 0 0 0 0 0 0 0 0 0 0 0 0 0 1 2 2 1 0 0 0 0 0 0 0 0 0 0 0 0 0 0
0 0 0 0 0 0 0 0 0 0 0 0 0 0 0 0 0 0 0 0 0 0 0 0 0 0 1 3 3 1 0 0 0 0 0 0 0 0 0 0 0 0 0 0
0 0 0 0 0 0 0 0 0 0 0 0 0 0 0 0 0 0 0 0 0 0 0 0 0 1 2 3 3 2 1 0 0 0 0 0 0 0 0 0 0 0 0 0
0 0 0 0 0 0 0 0 0 0 0 0 0 0 0 0 0 0 0 0 0 0 0 0 0 1 2 2 2 2 1 0 0 0 0 0 0 0 0 0 0 0 0 0
0 0 0 0 0 0 0 0 0 0 0 0 0 0 0 0 0 0 0 0 0 0 0 0 0 0 1 1 1 1 0 0 0 0 0 0 0 0 0 0 0 0 0 0
0 0 0 0 0 0 0 0 0 0 0 0 0 0 0 0 0 0 0 0 0 0 0 0 0 0 0 0 0 0 0 0 0 0 0 0 0 0 0 0 0 0 0 0
0 0 0 0 0 0 0 0 0 0 0 0 0 0 0 0 0 0 0 0 0 0 0 0 0 0 0 0 0 0 0 0 0 0 0 0 0 0 0 0 0 0 0 0
0 0 0 0 0 0 0 0 0 0 0 0 0 0 0 0 0 0 0 0 0 0 0 0 0 0 0 0 0 0 0 0 0 0 0 0 0 0 0 0 0 0 0 0
0 0 0 0 0 0 0 0 0 0 0 0 0 0 0 0 0 0 0 0 0 0 0 0 0 0 0 0 0 0 0 0 0 0 0 0 0 0 0 0 0 0 0 0
0 0 0 0 0 0 0 0 0 0 0 0 0 0 0 0 0 0 0 0 0 0 0 0 0 0 0 0 0 0 0 0 0 0 0 0 0 0 0 0 0 0 0 0
0 0 0 0 0 0 0 0 0 0 0 0 0 0 0 0 0 0 0 0 0 0 0 0 0 0 0 0 0 0 0 0 0 0 0 0 0 0 0 0 0 0 0 0
0 0 0 0 0 0 0 0 0 0 0 0 0 0 0 0 0 0 0 0 0 0 0 0 0 0 0 0 0 0 0 0 0 0 0 0 0 0 0 0 0 0 0 0
0 0 0 0 0 0 0 0 0 0 0 0 0 0 0 0 0 0 0 0 0 0 0 0 0 0 0 0 0 0 0 0 0 0 0 0 0 0 0 0 0 0 0 0
0 0 0 0 0 0 0 0 0 0 0 0 0 0 0 0 0 0 0 0 0 0 0 0 0 0 0 0 0 0 0 0 0 0 0 0 0 0 0 0 0 0 0 0
0 0 0 0 0 0 0 0 0 0 0 0 0 0 0 0 0 0 0 0 0 0 0 0 0 0 0 0 0 0 0 0 0 0 0 0 0 0 0 0 0 0 0 0
Wind_Speed
0 0 1 2 4 6 6 5 6 4 3 2 4 6 6 4 3 3 3 2 2 1 1 1 1 1 2 2 1 1 2 2 2 2 2 3 3 2 2 2 3 3 3 3
0 2 3 3 3 4 5 6 6 4 4 3 3 7 6 4 4 3 3 2 3 2 1 1 1 1 1 1 1 0 1 1 2 2 2 2 2 2 2 2 3 3 3 4
0 3 3 2 3 4 4 5 5 4 4 3 4 6 6 5 5 3 2 2 2 2 2 0 1 1 1 1 0 1 1 1 2 1 1 1 1 1 2 2 3 3 3 3
1 3 3 2 3 4 5 3 4 4 3 2 2 4 4 5 5 4 3 3 3 3 2 1 0 1 1 0 0 1 1 1 1 1 1 2 2 3 3 2 2 3 3 3
1 3 3 3 4 4 3 4 3 4 4 4 4 5 5 4 5 4 3 3 3 2 2 1 0 1 1 0 0 1 1 1 1 1 2 3 3 2 2 2 2 2 2 3
2 1 1 2 4 3 3 3 3 3 2 4 6 6 5 3 3 2 2 2 1 1 2 1 1 1 0 0 0 0 1 1 1 1 1 2 3 2 2 2 2 2 2 2
1 1 1 1 3 2 2 1 1 2 4 5 4 5 5 1 1 2 2 2 2 2 2 2 1 2 1 1 0 0 0 1 1 1 1 1 2 2 2 2 2 2 2 2
1 1 1 1 2 2 3 2 1 2 2 2 2 6 2 3 4 4 4 3 3 3 3 3 2 1 1 2 2 1 1 1 2 1 1 1 1 1 1 2 2 2 2 2
2 2 0 1 2 0 1 1 2 1 1 2 5 3 2 2 2 2 3 3 3 3 3 3 3 2 2 2 2 2 2 2 2 2 2 1 1 1 2 2 1 1 1 1
2 3 2 2 1 1 1 1 1 1 2 3 5 5 2 1 1 1 2 3 3 3 2 3 3 3 2 2 2 2 2 2 2 2 2 3 2 2 2 2 2 2 1 1
2 1 2 1 2 1 0 1 1 1 2 2 4 2 2 2 1 1 2 3 3 3 3 2 2 3 2 2 3 2 3 3 3 3 3 3 2 2 2 2 2 2 2 1
2 1 2 3 1 1 1 1 1 1 2 3 4 4 1 4 4 4 4 3 3 3 3 3 2 3 3 3 3 3 3 3 3 3 3 3 3 2 2 2 2 2 2 2
1 1 2 2 1 1 2 2 2 2 1 3 4 6 2 3 3 3 3 3 3 3 4 3 3 3 3 2 3 3 3 3 3 2 2 2 3 3 3 3 3 3 3 3
1 1 2 3 3 3 5 5 5 4 4 5 8 9 6 5 5 4 4 3 3 3 3 4 4 3 3 3 3 3 3 3 3 3 2 3 3 3 3 3 3 3 3 3
0 2 3 6 7 6 8 9 8 9 9 8 9 9 9 6 6 5 4 3 3 3 4 4 4 4 3 3 3 3 3 3 3 3 3 3 3 4 3 3 3 3 3 3
0 1 2 5 5 6 9 11 11 11 11 12 12 12 7 5 3 3 3 3 3 4 4 5 5 5 4 4 4 4 4 4 3 3 3 3 3 3 3 3 3 3 3 3
2 1 1 4 3 5 9 9 9 7 7 8 10 9 4 4 4 4 3 3 3 4 4 4 4 4 4 4 4 4 4 4 4 3 4 4 4 4 4 4 4 4 4 4
3 2 2 3 3 7 7 1 3 6 7 7 7 5 4 4 4 3 2 2 3 4 4 4 4 4 4 4 4 4 4 4 4 4 4 4 4 4 4 4 4 4 4 4
4 4 2 2 4 9 7 3 2 3 7 5 5 5 4 3 3 3 2 2 2 3 3 3 3 3 4 4 5 4 4 4 4 5 5 5 5 5 5 5 5 4 4 4
3 4 3 3 4 7 5 1 1 1 6 2 1 3 3 2 3 3 3 3 3 3 2 2 3 3 4 4 4 4 4 4 5 5 6 6 5 5 5 5 5 4 4 5
4 5 7 6 6 10 5 2 1 3 5 1 1 2 2 3 3 2 3 3 3 3 3 2 3 3 3 4 3 3 4 4 5 5 6 6 6 5 5 5 5 4 4 5
8 7 7 6 7 11 4 4 5 5 2 2 2 2 2 3 3 2 3 3 3 4 4 3 3 3 4 4 4 3 4 5 5 5 5 6 6 5 4 5 5 4 4 4
8 8 6 9 10 5 4 5 4 2 2 3 2 2 2 3 4 4 3 3 3 4 3 3 3 3 4 4 3 3 5 5 5 5 5 5 5 5 5 4 4 4 4 3
6 4 4 6 9 8 6 5 5 4 4 3 2 2 2 4 4 4 4 3 3 3 3 3 3 3 4 4 4 3 5 5 4 4 5 5 4 5 5 4 4 3 3 4
7 6 5 8 8 6 8 7 7 5 3 3 3 3 4 4 5 5 4 4 3 3 3 2 3 3 4 4 4 4 4 4 4 4 4 5 4 4 4 4 4 4 3 4
7 8 9 10 7 7 6 5 5 5 5 5 5 5 4 4 5 5 4 3 3 3 3 2 3 3 4 4 5 4 3 3 3 4 4 3 3 3 3 4 4 6 6 8
Wind_Direction
99 245 244 262 255 280 297 295 283 298 328 309 262 271 270 259 248 257 267 273 269 236 203 182 179 104 109 100 103 162 176 191 186 186 195 204 213 211 209 211 211 212 202 199
169 257 289 292 288 277 277 281 288 308 345 324 293 284 277 260 253 237 242 256 276 282 253 146 112 86 100 110 118 183 186 203 209 211 204 212 209 208 210 212 216 217 212 205
359 334 318 299 301 274 268 264 282 294 319 281 286 276 243 237 241 247 253 256 281 290 281 270 133 114 107 93 82 323 248 229 235 239 202 210 208 213 220 227 220 220 216 211
330 333 335 320 305 294 270 294 295 293 289 268 253 281 241 222 221 228 246 259 261 279 280 288 115 101 95 91 42 286 275 256 243 221 206 200 211 224 228 224 223 222 214 212
324 340 339 312 302 302 300 304 271 273 276 279 248 263 253 221 236 225 227 240 242 272 287 285 11 114 99 108 208 246 255 258 254 228 214 212 229 235 232 220 208 216 211 208
270 273 326 313 304 283 296 291 263 255 255 252 228 239 262 216 235 229 219 249 317 10 352 346 353 35 81 104 89 279 280 291 281 238 233 226 240 249 246 240 227 223 222 216
290 138 139 319 305 294 309 279 222 209 214 235 200 229 246 174 37 36 34 24 23 24 11 355 351 358 9 25 22 309 316 305 299 255 249 254 254 250 240 242 237 237 236 231
313 297 87 15 306 296 273 259 222 239 249 292 226 231 233 86 55 40 36 27 17 18 16 7 357 5 12 9 10 355 333 321 325 316 304 300 299 277 266 262 261 256 254 239
316 291 3 319 306 284 280 277 292 286 307 274 251 253 254 95 56 32 18 19 10 10 12 11 5 14 30 17 3 1 350 346 340 341 348 357 1 332 316 310 293 286 287 286
334 287 294 300 275 211 272 331 321 243 249 261 257 241 237 159 258 319 359 355 356 359 1 12 9 11 22 17 4 7 10 357 355 2 2 6 8 1 346 342 331 325 319 304
332 263 277 270 217 230 187 185 271 267 284 274 283 277 32 63 65 23 7 6 352 349 352 3 2 5 23 27 20 14 21 19 13 11 7 6 0 9 4 354 338 328 319 303
341 314 271 254 272 301 249 249 210 230 269 263 279 275 31 44 39 33 9 354 346 353 355 352 355 7 20 24 20 17 14 16 9 8 10 5 359 6 4 352 345 340 332 330
345 306 301 297 271 322 257 243 243 258 275 246 245 263 348 19 11 358 339 333 338 353 359 356 360 9 12 17 15 16 14 10 7 3 11 9 3 5 360 351 347 346 344 339
328 248 226 253 299 302 277 264 248 232 233 251 245 267 287 314 320 321 320 333 345 355 358 1 4 8 13 16 11 9 13 10 3 1 10 5 358 352 346 344 344 339 338 335
34 253 259 276 289 285 276 265 249 237 235 244 265 272 277 294 307 316 328 336 336 343 358 6 9 5 5 9 6 3 3 2 360 2 4 353 352 353 348 350 346 341 337 334
136 257 289 279 271 281 274 260 248 246 244 250 265 272 276 289 318 323 329 331 332 343 358 8 7 1 358 1 357 353 353 348 352 353 345 344 353 351 342 340 342 340 335 331
189 169 270 273 309 317 273 242 228 232 236 237 251 264 294 300 306 308 320 337 344 352 0 358 355 355 351 351 348 347 343 343 350 350 347 349 349 344 339 338 344 336 325 326
185 178 224 282 330 255 250 207 222 246 258 251 263 278 287 296 303 311 331 334 341 351 353 352 348 348 349 349 353 355 357 353 351 352 350 346 342 336 333 334 332 324 321 320
194 187 219 231 259 272 280 258 215 248 275 256 257 273 292 307 314 309 345 10 354 353 349 348 353 351 351 355 353 355 358 356 354 348 342 338 336 332 330 328 324 321 321 320
190 189 214 224 244 251 259 107 32 323 279 277 267 286 304 336 307 296 358 11 358 355 355 353 354 359 355 347 349 356 349 353 347 339 336 335 335 332 328 324 322 322 321 318
176 200 215 225 243 261 257 162 111 210 259 305 266 272 273 255 248 281 336 340 335 336 339 349 356 354 341 337 347 352 346 345 338 335 337 339 340 336 330 327 325 325 323 321
183 189 201 201 226 251 202 146 201 233 279 294 290 278 280 280 289 302 309 313 323 328 337 346 349 340 339 346 348 342 339 334 336 336 339 339 337 334 332 329 326 328 326 326
207 200 197 204 222 243 192 217 237 254 274 275 275 290 286 279 282 294 299 305 315 318 322 329 325 324 335 349 354 330 323 333 338 338 334 331 333 333 332 329 329 332 333 327
231 220 230 251 256 255 251 250 252 250 251 266 270 276 277 274 279 286 288 290 295 301 309 318 320 319 324 338 343 325 325 336 334 328 326 326 332 334 335 333 330 331 328 319
212 191 218 248 261 274 259 242 241 244 241 250 260 256 256 261 268 272 277 279 281 292 303 312 310 309 312 324 327 333 337 340 333 324 323 327 331 332 333 332 322 318 308 307
198 196 202 231 223 216 240 228 223 229 239 242 246 258 258 248 259 271 275 281 289 296 303 308 308 306 312 322 320 326 336 337 327 321 324 323 323 324 322 322 324 326 321 330